EW6005 Weather Reports


Display with metric or nautical units.
time (UTC)temp
F
wind
direction
speed
MPH
gust
MPH
rain 1hr
in
rain 24hr
in
rain mn
in
humidity
%
barometer
mb
20260906201225 87 0 1.0 5.0 0.00 0.09 0.00 79 998.8
20260906200944 87 0 2.0 5.0 0.00 0.09 0.00 79 998.7
20260906200223 87 0 2.0 6.0 0.00 0.09 0.00 79 998.7
20260906195721 87 0 3.0 6.0 0.00 0.09 0.00 80 998.7
20260906195221 87 0 3.0 8.0 0.00 0.09 0.00 79 998.8
20260906194721 87 0 3.0 10.0 0.00 0.09 0.00 79 998.7
20260906194221 87 0 3.0 10.0 0.00 0.09 0.00 78 998.4
20260906193721 88 0 3.0 9.0 0.00 0.09 0.00 78 998.4
20260906193221 88 0 4.0 9.0 0.00 0.09 0.00 79 998.4
20260906192721 89 155 3.0 9.0 0.00 0.09 0.00 79 998.5
20260906192437 89 181 2.0 8.0 0.00 0.09 0.00 80 998.7
20260906191718 89 0 2.0 8.0 0.00 0.09 0.00 78 998.7
20260906191217 89 256 3.0 8.0 0.00 0.09 0.00 78 998.8
20260906190718 89 171 3.0 8.0 0.00 0.09 0.00 76 998.9
20260906190217 90 149 2.0 9.0 0.00 0.09 0.00 77 998.9
20260906185718 90 189 1.0 9.0 0.00 0.09 0.00 78 998.9
20260906185216 90 186 2.0 5.0 0.00 0.09 0.00 78 998.9
20260906184717 90 199 1.0 5.0 0.00 0.09 0.00 78 999.0
20260906184219 90 171 1.0 4.0 0.00 0.09 0.00 78 999.0
20260906183717 90 247 2.0 9.0 0.00 0.09 0.00 78 999.2
20260906183217 90 290 3.0 9.0 0.00 0.09 0.00 79 999.3
20260906182717 90 234 2.0 7.0 0.00 0.09 0.00 77 999.3
20260906182217 90 0 1.0 6.0 0.00 0.09 0.00 77 999.1
20260906181716 90 0 1.0 6.0 0.00 0.09 0.00 76 999.1
20260906181444 90 0 1.0 5.0 0.00 0.09 0.00 79 999.3
20260906180717 89 0 1.0 5.0 0.00 0.09 0.00 80 999.3
20260906180216 89 0 1.0 6.0 0.00 0.09 0.00 79 999.2
20260906175716 89 0 1.0 6.0 0.00 0.09 0.00 80 999.1
20260906175217 88 164 0.0 2.0 0.00 0.09 0.00 81 999.2
20260906174717 88 0 1.0 4.0 0.00 0.09 0.00 81 999.2
20260906174217 87 0 1.0 4.0 0.00 0.09 0.00 82 999.3
20260906173718 87 0 0.0 2.0 0.00 0.09 0.00 82 999.5
20260906173217 87 0 0.0 2.0 0.00 0.09 0.00 81 999.6
20260906172717 87 0 0.0 2.0 0.00 0.09 0.00 82 999.7
20260906172216 88 96 0.0 1.0 0.00 0.09 0.00 83 999.7
20260906171717 88 329 0.0 0.0 0.00 0.09 0.00 84 999.8
20260906171217 88 328 0.0 0.0 0.00 0.09 0.00 84 999.8
20260906170717 87 329 0.0 1.0 0.00 0.09 0.00 84 999.8
20260906170217 87 328 0.0 3.0 0.00 0.09 0.00 85 999.9
20260906165717 87 344 1.0 3.0 0.00 0.09 0.00 83 999.8
20260906165216 88 36 0.0 2.0 0.00 0.09 0.00 84 999.7
20260906164718 88 69 0.0 2.0 0.00 0.09 0.00 84 999.7
20260906164218 88 69 0.0 2.0 0.00 0.09 0.00 85 999.8
20260906163938 88 265 0.0 0.0 0.00 0.09 0.00 86 999.8
20260906163216 87 0 0.0 0.0 0.00 0.09 0.00 86 999.9
20260906162713 88 0 0.0 0.0 0.00 0.09 0.00 85 1000.0
20260906162213 88 0 0.0 0.0 0.00 0.09 0.00 87 1000.0
20260906161712 87 0 0.0 1.0 0.00 0.09 0.00 86 1000.0
20260906161214 87 0 1.0 3.0 0.00 0.09 0.00 87 1000.0
20260906160713 87 0 0.0 3.0 0.00 0.09 0.00 86 1000.0
20260906160213 87 0 0.0 0.0 0.00 0.09 0.00 88 1000.0
20260906155713 87 0 0.0 0.0 0.00 0.09 0.00 90 1000.0
20260906155431 87 315 0.0 0.0 0.00 0.09 0.00 91 1000.0
20260906154711 86 315 0.0 0.0 0.00 0.09 0.00 93 1000.0
20260906154205 85 45 0.0 0.0 0.00 0.09 0.00 93 1000.0
20260906153705 85 21 0.0 0.0 0.00 0.09 0.00 95 1000.0
20260906153202 85 200 0.0 0.0 0.00 0.09 0.00 96 1000.1
20260906152701 84 269 0.0 3.0 0.00 0.09 0.00 96 1000.1
20260906152201 84 209 0.0 3.0 0.00 0.09 0.00 96 1000.1
20260906151658 84 185 0.0 1.0 0.00 0.09 0.00 97 1000.1
20260906151159 83 0 0.0 3.0 0.00 0.09 0.00 97 1000.1
20260906150700 83 0 0.0 3.0 0.00 0.09 0.00 97 1000.1
20260906150423 83 0 0.0 4.0 0.00 0.09 0.00 97 1000.1
20260906145654 83 0 1.0 4.0 0.00 0.09 0.00 98 1000.1
20260906145154 83 197 0.0 2.0 0.00 0.09 0.00 98 1000.0
20260906144646 83 0 0.0 1.0 0.00 0.09 0.00 99 1000.0
20260906144146 82 0 0.0 4.0 0.00 0.09 0.00 99 1000.1
20260906143736 82 0 1.0 4.0 0.00 0.09 0.00 99 999.9
20260906142641 81 0 0.0 1.0 0.00 0.09 0.00 100 999.9
20260906142142 80 0 0.0 1.0 0.00 0.09 0.00 100 1000.0
20260906141642 80 0 1.0 2.0 0.00 0.09 0.00 100 1000.0
20260906141141 80 0 1.0 2.0 0.00 0.09 0.00 100 999.9
20260906140638 79 0 0.0 1.0 0.00 0.09 0.00 100 999.9
20260906140138 79 0 0.0 1.0 0.00 0.09 0.00 100 999.9
20260906135637 79 0 0.0 1.0 0.00 0.09 0.00 100 999.9
20260906135135 79 0 0.0 1.0 0.00 0.09 0.00 100 999.9
20260906134631 79 0 0.0 1.0 0.00 0.09 0.00 100 999.8
20260906134353 78 0 0.0 1.0 0.00 0.09 0.00 100 999.8
20260906133630 78 0 0.0 1.0 0.00 0.09 0.00 100 999.8
20260906133125 78 0 0.0 0.0 0.00 0.09 0.00 100 999.8
20260906132625 78 0 0.0 0.0 0.00 0.09 0.00 100 999.8
20260906132349 78 0 0.0 0.0 0.00 0.09 0.00 99 999.7
20260906131623 77 0 0.0 0.0 0.00 0.09 0.00 99 999.6
20260906131123 77 0 0.0 0.0 0.00 0.09 0.00 99 999.5
20260906130624 77 0 0.0 0.0 0.00 0.09 0.00 99 999.4
20260906130122 77 0 0.0 0.0 0.00 0.09 0.00 99 999.3
20260906125620 77 0 0.0 0.0 0.00 0.09 0.00 99 999.4
20260906125120 77 0 0.0 0.0 0.00 0.09 0.00 99 999.4
20260906124620 77 0 0.0 0.0 0.00 0.09 0.00 99 999.3
20260906124121 77 0 0.0 0.0 0.00 0.09 0.00 99 999.3
20260906123620 77 0 0.0 0.0 0.00 0.09 0.00 99 999.1
20260906123341 77 0 0.0 0.0 0.00 0.09 0.00 99 999.1
20260906122621 77 0 0.0 0.0 0.00 0.09 0.00 98 999.0
20260906122116 77 0 0.0 0.0 0.00 0.09 0.00 98 999.0
20260906121616 77 0 0.0 0.0 0.00 0.09 0.00 98 998.9
20260906121113 77 0 0.0 0.0 0.00 0.09 0.00 98 998.8
20260906120612 77 0 0.0 0.0 0.00 0.09 0.00 98 998.8
20260906120112 77 0 0.0 0.0 0.00 0.09 0.00 98 998.8
20260906115612 77 0 0.0 1.0 0.00 0.09 0.00 98 998.9
20260906115113 77 0 0.0 1.0 0.00 0.09 0.00 98 998.8
20260906114835 77 0 0.0 1.0 0.00 0.09 0.00 98 998.8
20260906114112 77 0 0.0 0.0 0.00 0.09 0.00 98 998.7
20260906113612 77 0 0.0 0.0 0.00 0.09 0.00 98 998.7
20260906113113 77 0 0.0 0.0 0.00 0.09 0.00 98 998.5
20260906112833 77 0 0.0 0.0 0.00 0.09 0.00 98 998.5
20260906112112 77 0 0.0 0.0 0.00 0.09 0.00 98 998.5
20260906111839 77 0 0.0 0.0 0.00 0.09 0.00 98 998.3
20260906111331 77 0 0.0 0.0 0.00 0.09 0.00 98 998.3
20260906110610 77 0 0.0 0.0 0.00 0.09 0.00 98 998.3
20260906110110 77 0 0.0 0.0 0.00 0.09 0.00 98 998.3
20260906105610 77 0 0.0 0.0 0.00 0.09 0.00 98 998.2
20260906105106 77 0 0.0 0.0 0.00 0.09 0.00 98 998.0
20260906104606 77 0 0.0 0.0 0.00 0.09 0.00 98 998.0
20260906104106 77 0 0.0 0.0 0.00 0.09 0.00 98 998.1
20260906103606 77 0 0.0 0.0 0.00 0.09 0.00 98 998.1
20260906103106 77 0 0.0 0.0 0.00 0.09 0.00 98 998.0
20260906102607 77 0 0.0 0.0 0.00 0.09 0.00 98 997.9
20260906102106 77 0 0.0 0.0 0.00 0.09 0.00 98 997.9
20260906101606 77 0 0.0 0.0 0.00 0.09 0.00 98 998.0
20260906101107 77 0 0.0 0.0 0.00 0.09 0.00 98 997.9
20260906100604 77 0 0.0 0.0 0.00 0.09 0.00 98 997.8
20260906095602 77 0 0.0 0.0 0.00 0.09 0.00 98 997.8
20260906095323 77 0 0.0 0.0 0.00 0.09 0.00 98 997.8
20260906095041 78 0 0.0 0.0 0.00 0.09 0.00 98 997.9
20260906094101 78 0 0.0 0.0 0.00 0.09 0.00 98 997.9
20260906093604 78 0 0.0 0.0 0.00 0.09 0.00 98 997.9
20260906093320 78 0 0.0 0.0 0.00 0.09 0.00 98 997.9
20260906092602 78 0 0.0 0.0 0.00 0.09 0.00 98 997.9
20260906092058 78 0 0.0 0.0 0.00 0.09 0.00 98 998.0
20260906091558 78 0 0.0 0.0 0.00 0.09 0.00 98 997.9
20260906091059 78 0 0.0 0.0 0.00 0.09 0.00 98 997.8
20260906090558 78 0 0.0 0.0 0.00 0.09 0.00 98 997.7
20260906090058 78 0 0.0 0.0 0.00 0.09 0.00 98 997.7
20260906085559 78 0 0.0 0.0 0.00 0.09 0.00 98 997.7
20260906085059 78 0 0.0 0.0 0.00 0.09 0.00 98 997.7
20260906084600 78 0 0.0 0.0 0.00 0.09 0.00 98 997.7
20260906084059 78 0 0.0 0.0 0.00 0.09 0.00 98 997.7
20260906083555 78 0 0.0 0.0 0.00 0.09 0.00 97 997.7
20260906083056 78 0 0.0 0.0 0.00 0.09 0.00 97 997.7
20260906082556 78 0 0.0 0.0 0.00 0.09 0.00 97 997.7
20260906082054 78 0 0.0 0.0 0.00 0.09 0.00 97 997.7
20260906081811 78 0 0.0 0.0 0.00 0.09 0.00 97 997.8
20260906081318 78 0 0.0 0.0 0.00 0.09 0.00 97 997.9
20260906080554 78 0 0.0 0.0 0.00 0.09 0.00 97 997.9
20260906080055 78 0 0.0 0.0 0.00 0.09 0.00 97 997.8
20260906075554 78 0 0.0 0.0 0.00 0.09 0.00 97 997.9
20260906075051 78 0 0.0 0.0 0.00 0.09 0.00 97 997.9
20260906074550 78 0 0.0 0.0 0.00 0.09 0.00 97 997.9
20260906074051 78 0 0.0 0.0 0.00 0.09 0.00 97 997.9
20260906073549 78 0 0.0 0.0 0.00 0.09 0.00 97 997.9
20260906073309 78 0 0.0 0.0 0.00 0.09 0.00 97 998.0
20260906072550 78 0 0.0 0.0 0.00 0.09 0.00 97 998.0
20260906072527 78 0 0.0 0.0 0.00 0.09 0.00 97 998.0
20260906071550 78 0 0.0 0.0 0.00 0.09 0.00 97 998.1
20260906071051 78 0 0.0 0.0 0.00 0.09 0.00 97 998.2
20260906070547 78 0 0.0 0.0 0.00 0.09 0.00 97 998.1
20260906070045 78 0 0.0 0.0 0.00 0.09 0.00 97 998.1
20260906065543 78 0 0.0 0.0 0.00 0.09 0.00 97 998.0
20260906065306 78 0 0.0 0.0 0.00 0.09 0.00 97 997.9
20260906064544 78 0 0.0 0.0 0.00 0.09 0.00 97 998.0
20260906064044 78 0 0.0 1.0 0.00 0.09 0.00 97 998.0
20260906063540 78 0 0.0 1.0 0.00 0.09 0.00 97 998.1
20260906063258 78 0 0.0 0.0 0.00 0.09 0.00 97 998.1
20260906062539 78 0 0.0 0.0 0.00 0.09 0.00 97 998.1
20260906062039 78 0 0.0 0.0 0.00 0.09 0.00 97 998.1
20260906061537 78 0 0.0 0.0 0.00 0.09 0.00 97 998.1
20260906061038 78 0 0.0 0.0 0.00 0.09 0.00 97 998.1
20260906060537 78 0 0.0 0.0 0.00 0.09 0.00 97 998.1
20260906060036 78 0 0.0 0.0 0.00 0.09 0.00 97 998.0
20260906055536 78 0 0.0 0.0 0.00 0.09 0.00 97 998.0
20260906055034 78 0 0.0 0.0 0.00 0.09 0.00 97 998.1
20260906054531 78 0 0.0 0.0 0.00 0.09 0.00 96 998.2
20260906054029 78 0 0.0 0.0 0.00 0.09 0.00 96 998.3
20260906053528 78 0 0.0 0.0 0.00 0.09 0.00 96 998.3
20260906053026 78 0 0.0 0.0 0.00 0.09 0.00 96 998.3
20260906052525 78 0 0.0 0.0 0.00 0.09 0.00 96 998.2
20260906052021 78 0 0.0 0.0 0.00 0.09 0.00 96 998.2
20260906051520 78 0 0.0 0.0 0.00 0.09 0.00 96 998.2
20260906051017 78 0 0.0 0.0 0.00 0.09 0.00 96 998.1
20260906050514 78 0 0.0 0.0 0.00 0.09 0.00 96 998.1
20260906050012 78 0 0.0 0.0 0.00 0.09 0.00 96 998.0
20260906045509 78 0 0.0 0.0 0.00 0.09 0.09 96 998.1
20260906045009 78 0 0.0 0.0 0.00 0.09 0.09 96 998.1
20260906044508 78 0 0.0 0.0 0.00 0.09 0.09 96 998.2
20260906044009 78 0 0.0 0.0 0.00 0.09 0.09 96 998.1
20260906043950 78 0 0.0 0.0 0.00 0.09 0.09 96 998.2
20260906043009 78 0 0.0 0.0 0.00 0.09 0.09 96 998.2
20260906042509 78 0 0.0 0.0 0.00 0.09 0.09 96 998.1
20260906042009 78 0 0.0 0.0 0.00 0.09 0.09 96 998.1
20260906041730 78 0 0.0 0.0 0.00 0.09 0.09 96 998.1
20260906041008 78 0 0.0 0.0 0.00 0.09 0.09 96 998.2
20260906040508 78 0 0.0 0.0 0.00 0.09 0.09 95 998.2
20260906040008 78 0 0.0 0.0 0.00 0.09 0.09 95 998.2
20260906035508 78 0 0.0 0.0 0.00 0.09 0.09 95 998.3
20260906035008 78 0 0.0 0.0 0.00 0.09 0.09 95 998.2
20260906034724 78 0 0.0 0.0 0.00 0.09 0.09 95 998.3
20260906034004 78 0 0.0 0.0 0.00 0.09 0.09 95 998.2
20260906033504 78 0 0.0 0.0 0.00 0.09 0.09 95 998.3
20260906033008 78 0 0.0 0.0 0.00 0.09 0.09 95 998.2
20260906032505 78 0 0.0 0.0 0.00 0.09 0.09 95 998.2
20260906032230 78 0 0.0 0.0 0.00 0.09 0.09 95 998.3
20260906031504 78 0 0.0 0.0 0.00 0.09 0.09 95 998.2
20260906031004 78 0 0.0 0.0 0.00 0.09 0.09 95 998.2
20260906030505 78 0 0.0 0.0 0.00 0.09 0.09 95 998.1
20260906030000 78 0 0.0 0.0 0.00 0.09 0.09 95 998.2
20260906025500 78 0 0.0 0.0 0.00 0.09 0.09 95 998.3
20260906024959 78 0 0.0 0.0 0.00 0.09 0.09 95 998.1
20260906024500 78 0 0.0 0.0 0.00 0.09 0.09 95 998.0
20260906024001 78 0 0.0 0.0 0.00 0.09 0.09 94 997.9
20260906023459 78 0 0.0 1.0 0.00 0.09 0.09 94 997.9
20260906023000 78 0 0.0 1.0 0.00 0.09 0.09 94 997.9
20260906022500 78 0 0.0 0.0 0.00 0.09 0.09 94 997.8
20260906022001 78 0 0.0 0.0 0.00 0.09 0.09 94 997.8
20260906021456 78 0 0.0 0.0 0.00 0.09 0.09 94 997.7
20260906020956 79 0 0.0 0.0 0.00 0.09 0.09 94 997.7
20260906020457 79 0 0.0 0.0 0.00 0.09 0.09 94 997.7
20260906020224 79 0 0.0 0.0 0.00 0.09 0.09 94 997.7
20260906015456 79 0 0.0 0.0 0.00 0.09 0.09 94 997.6
20260906014957 79 0 0.0 0.0 0.00 0.09 0.09 94 997.5
20260906014456 79 0 0.0 0.0 0.00 0.09 0.09 94 997.4
20260906013957 79 0 0.0 0.0 0.00 0.09 0.09 94 997.3
20260906013719 79 0 0.0 0.0 0.00 0.09 0.09 94 997.2
20260906012951 79 0 0.0 0.0 0.00 0.09 0.09 94 997.3
20260906012713 79 0 0.0 0.0 0.00 0.09 0.09 94 997.4
20260906011953 79 0 0.0 0.0 0.00 0.09 0.09 93 997.2
20260906011452 79 0 0.0 0.0 0.00 0.09 0.09 93 997.1
20260906010953 79 0 0.0 0.0 0.00 0.09 0.09 93 997.0
20260906010452 79 0 0.0 0.0 0.00 0.09 0.09 93 997.0
20260906005951 79 0 0.0 0.0 0.00 0.09 0.09 93 997.0
20260906005714 79 0 0.0 0.0 0.00 0.09 0.09 93 997.0
20260906004951 80 0 0.0 0.0 0.00 0.09 0.09 93 997.1
20260906004451 80 0 0.0 0.0 0.00 0.09 0.09 93 997.1
20260906003951 80 0 0.0 0.0 0.00 0.09 0.09 93 997.3
20260906003716 80 0 0.0 0.0 0.01 0.09 0.09 93 997.3
20260906002952 80 0 0.0 0.0 0.01 0.09 0.09 93 997.3
20260906002452 80 0 0.0 0.0 0.01 0.09 0.09 93 997.4
20260906002210 80 0 0.0 0.0 0.01 0.09 0.09 93 997.4
20260906001452 80 0 0.0 0.0 0.01 0.09 0.09 92 997.5
20260906000951 80 0 0.0 0.0 0.01 0.09 0.09 92 997.6
20260906000451 80 0 0.0 0.0 0.01 0.09 0.09 92 997.7
20260905235951 80 0 0.0 0.0 0.01 0.09 0.09 92 997.7
20260905235451 80 0 0.0 0.0 0.01 0.09 0.09 92 997.8
20260905234952 80 0 0.0 0.0 0.01 0.09 0.09 93 997.9
20260905234543 80 0 0.0 0.0 0.01 0.09 0.09 92 997.9
20260905233455 81 0 0.0 0.0 0.00 0.08 0.08 92 998.0
20260905232954 81 0 0.0 0.0 0.00 0.08 0.08 92 998.0
20260905232711 81 0 0.0 0.0 0.00 0.08 0.08 92 997.8
20260905231949 81 0 0.0 0.0 0.00 0.08 0.08 92 997.8
20260905231449 81 0 0.0 0.0 0.00 0.08 0.08 91 997.8
20260905230949 81 0 0.0 0.0 0.00 0.08 0.08 91 997.8
20260905230450 81 0 0.0 0.0 0.00 0.08 0.08 91 997.7
20260905225950 81 0 0.0 0.0 0.00 0.08 0.08 91 997.7
20260905225451 81 0 0.0 0.0 0.00 0.08 0.08 91 997.8
20260905224949 81 0 0.0 0.0 0.01 0.08 0.08 90 997.8
20260905224449 81 0 0.0 0.0 0.04 0.08 0.08 90 997.6
20260905223949 81 0 0.0 0.0 0.08 0.08 0.08 89 997.5
20260905223448 81 0 0.0 1.0 0.08 0.08 0.08 88 997.6
20260905222949 81 0 0.0 1.0 0.08 0.08 0.08 88 997.8
20260905222445 81 0 0.0 1.0 0.08 0.08 0.08 88 997.8
20260905221947 82 0 0.0 1.0 0.08 0.08 0.08 87 997.6
20260905221444 82 0 0.0 1.0 0.08 0.08 0.08 86 997.3
20260905220943 83 0 0.0 1.0 0.08 0.08 0.08 85 997.2
20260905220445 83 0 0.0 1.0 0.08 0.08 0.08 83 997.5
20260905215943 84 0 1.0 3.0 0.08 0.08 0.08 83 997.8
20260905215444 85 0 1.0 6.0 0.08 0.08 0.08 79 997.7
20260905214942 87 0 1.0 6.0 0.07 0.07 0.07 77 997.6
20260905214441 88 0 1.0 4.0 0.04 0.04 0.04 76 997.2
20260905213939 89 0 0.0 4.0 0.00 0.00 0.00 72 997.0
20260905213659 89 0 0.0 2.0 0.00 0.00 0.00 72 997.1
20260905213155 90 200 1.0 4.0 0.00 0.00 0.00 71 997.1
20260905212436 91 348 1.0 4.0 0.00 0.00 0.00 70 997.2
20260905211935 92 57 1.0 3.0 0.00 0.00 0.00 69 997.3
20260905211434 93 331 1.0 3.0 0.00 0.00 0.00 68 997.2
20260905210932 94 59 0.0 0.0 0.00 0.00 0.00 67 997.1
20260905210649 94 59 0.0 2.0 0.00 0.00 0.00 65 997.1
20260905205929 94 154 0.0 2.0 0.00 0.00 0.00 64 997.0
20260905205430 94 0 1.0 2.0 0.00 0.00 0.00 64 997.1
20260905204922 94 0 0.0 2.0 0.00 0.00 0.00 66 997.1
20260905204419 94 112 0.0 3.0 0.00 0.00 0.00 65 997.0
20260905204143 94 0 1.0 4.0 0.00 0.00 0.00 64 997.0
20260905203418 94 168 1.0 4.0 0.00 0.00 0.00 64 997.1
20260905202917 94 37 1.0 5.0 0.00 0.00 0.00 63 997.1
20260905202417 94 159 1.0 5.0 0.00 0.00 0.00 64 997.1
20260905201913 94 199 1.0 4.0 0.00 0.00 0.00 66 997.1
20260905201900 94 277 1.0 4.0 0.00 0.00 0.00 67 997.3